Back to catalog

YAOGAN-43 03C

AliveMilitaryVLEO
NORAD 61619·PAYLOAD·🇨🇳 China

Launched Oct 23, 2024 from Xichang Satellite Launch Center

Loading…

Next Passes (next 24 hours)

TLE

FreshSource: Space-Track

Epoch: Sep 14, 2026, 14:21 UTC

1 61619U 24190C   26257.59826992  .00002124  00000-0  89626-4 0  9995
2 61619  34.9973 355.7455 0005582  68.0936 292.0372 15.23016154105465

Track YAOGAN-43 03C in real time with AllMySat

Download on the App Store